Weather History for Kansas City International, MO

Change the Weather History Date:

Tuesday, June 18, 2013

  Actual Average Record
Temperature  
Mean Temperature 75 °F 74 °F  
Max Temperature 85 °F 84 °F 104 °F (1953)
Min Temperature 64 °F 65 °F 52 °F (2000)
Degree Days  
Heating Degree Days 0 0  
Month to date heating degree days 17 7  
Since 1 June heating degree days 17 7  
Since 1 July heating degree days 5202 5131  
Cooling Degree Days 10 10  
Month to date cooling degree days 110 134  
Year to date cooling degree days 215 250  
Since 1 June cooling degree days 110 134  
Growing Degree Days 24 (Base 50)    
Moisture  
Dew Point 62 °F    
Average Humidity 68    
Maximum Humidity 93    
Minimum Humidity 43    
Precipitation  
Precipitation 0.00 in 0.18 in 2.35 in (1983)
Month to date precipitation 1.86 3.19  
Year to date precipitation 16.79 17.02  
Snow  
Snow 0.00 in 0.00 in 0.00 in ()
Month to date snowfall 0.0 0.0  
Since 1 June snowfall 0.0 0.0  
Since 1 July snowfall 31.8 18.8  
Snow Depth 0.00 in    
Sea Level Pressure  
Sea Level Pressure 29.99 in    
Wind  
Wind Speed 6 mph (North)    
Max Wind Speed 20 mph    
Max Gust Speed 24 mph    
Visibility 10 miles    
Events      
T = Trace of Precipitation, MM = Missing Value Source: NWS Daily Summary

Daily Weather History Graph

Daily Weather History Graph

Search for Another Location

Airport:

Trip Planner

Search our weather history database for the weather conditions in past years. The results will help you decide how hot, cold, wet, or windy it might be!

Date:

Astronomy

Jun. 18, 2013 Rise Set
Actual Time 5:52 AM CDT 8:48 PM CDT
Civil Twilight 5:19 AM CDT 9:20 PM CDT
Nautical Twilight 4:38 AM CDT 10:01 PM CDT
Astronomical Twilight 3:51 AM CDT 10:48 PM CDT
Moon 3:35 PM CDT (6/18) 1:59 AM CDT (6/18)
Length of Visible Light 16h 00m
Length of Day
14h 56m
Waxing Gibbous, 71% of the Moon is Illuminated
Jun 18
Waxing Gibbous
Jun 23
Full
Jun 29
Last Quarter
Jul 8
New
Jul 15
First Quarter

Hourly Weather History & Observations

Time (CDT) Temp. Heat Index Dew Point Humidity Pressure Visibility Wind Dir Wind Speed Gust Speed Precip Events Conditions
12:53 AM 66.9 °F - 64.9 °F 93% 29.96 in 10.0 mi SW 5.8 mph - N/A   Clear
1:53 AM 64.9 °F - 63.0 °F 93% 29.98 in 10.0 mi SSW 6.9 mph - N/A   Clear
2:53 AM 66.0 °F - 63.0 °F 90% 29.98 in 10.0 mi SW 6.9 mph - N/A   Clear
3:53 AM 66.0 °F - 63.0 °F 90% 29.98 in 10.0 mi SW 5.8 mph - N/A   Clear
4:53 AM 64.9 °F - 63.0 °F 93% 29.98 in 10.0 mi NNW 3.5 mph - N/A   Clear
5:53 AM 64.9 °F - 63.0 °F 93% 29.98 in 9.0 mi Calm Calm - N/A   Partly Cloudy
6:53 AM 69.1 °F - 64.9 °F 87% 29.97 in 10.0 mi WNW 5.8 mph - N/A   Partly Cloudy
7:53 AM 71.1 °F - 66.0 °F 84% 29.99 in 10.0 mi NW 6.9 mph - N/A   Scattered Clouds
8:53 AM 75.9 °F - 66.0 °F 71% 30.00 in 10.0 mi WNW 6.9 mph - N/A   Scattered Clouds
9:53 AM 80.1 °F 80.9 °F 60.1 °F 50% 30.01 in 10.0 mi NNE 6.9 mph - N/A   Scattered Clouds
10:53 AM 81.0 °F 81.0 °F 57.0 °F 44% 30.02 in 10.0 mi NE 11.5 mph 18.4 mph N/A   Partly Cloudy
11:53 AM 82.0 °F 82.1 °F 59.0 °F 45% 30.01 in 10.0 mi NE 12.7 mph - N/A   Scattered Clouds
12:53 PM 82.9 °F 82.8 °F 59.0 °F 44% 30.02 in 10.0 mi ENE 10.4 mph - N/A   Mostly Cloudy
1:53 PM 82.9 °F 83.2 °F 60.1 °F 46% 30.01 in 10.0 mi NNE 10.4 mph - N/A   Mostly Cloudy
2:53 PM 84.0 °F 83.8 °F 59.0 °F 43% 30.01 in 10.0 mi NE 10.4 mph - N/A   Scattered Clouds
3:53 PM 81.0 °F 81.6 °F 60.1 °F 49% 30.00 in 10.0 mi NNE 13.8 mph - N/A   Mostly Cloudy
4:53 PM 75.9 °F - 60.1 °F 58% 29.97 in 10.0 mi NE 10.4 mph - N/A   Mostly Cloudy
5:53 PM 75.0 °F - 60.1 °F 60% 29.98 in 10.0 mi NNE 5.8 mph - N/A   Mostly Cloudy
6:53 PM 77.0 °F - 59.0 °F 54% 29.97 in 10.0 mi NE 3.5 mph - N/A   Mostly Cloudy
7:53 PM 75.0 °F - 63.0 °F 66% 29.98 in 10.0 mi South 6.9 mph - N/A   Mostly Cloudy
8:53 PM 70.0 °F - 63.0 °F 78% 29.97 in 10.0 mi Calm Calm - N/A   Scattered Clouds
9:53 PM 72.0 °F - 62.1 °F 71% 29.97 in 10.0 mi Calm Calm - N/A   Scattered Clouds
10:53 PM 70.0 °F - 62.1 °F 76% 29.98 in 10.0 mi Calm Calm - N/A   Clear
11:53 PM 68.0 °F - 63.0 °F 84% 29.98 in 10.0 mi Calm Calm - N/A   Clear